Flag Weather past 2 weeks in Cartagena, Colombia

Now
88 °F

Passing clouds.


Feels Like: 98 °F
Forecast: 80 / 90 °F
Wind: 5 mph from East

Location: Cartagena / Rafael Nunez

Current Time: Nov 28, 2014 at 10:04:32 AM

Latest Report: Nov 28, 2014 at 9:00 AM


Visibility: N/A

Pressure: 29.84 "Hg

Humidity: 66%

Dew point: 75 °F

Location of CartagenaLocation

Historic Weather in Cartagena — Graph

°F

Cartagena temperature yesterday

Maximum temperature yesterday: 88 °F (at 1:00 PM)
Minimum temperature yesterday: 77 °F (at 7:00 AM)
Average temperature yesterday: 83 °F

Past Weeks' High & Low Weather Summary

 TemperatureHumidityPressure
High91 °F (Nov 17, 10:00 AM)100% (Nov 17, 2:00 AM)29.92 "Hg (Nov 17, 2:00 AM)
Low77 °F (Nov 14, 3:00 AM)63% (Nov 18, 10:00 AM)29.70 "Hg (Nov 23, 5:00 PM)
Average84 °F82%29.81 "Hg
* Reported Nov 13 9:00 AM — Nov 28 9:00 AM, Cartagena, Weather by CustomWeather, © 2014

Note: Actual official high and low records may vary slightly from our data, if they occured in-between our weather recording intervals... More about our weather records

Advertising

Cartagena weather history for previous 24 hours

 ConditionsComfort  
Time TempWeatherWind HumidityBarometerVisibility
9:00 AM
Nov 28
88 °FPassing clouds.5 mph66%29.84 "HgN/A
8:00 AM84 °FPassing clouds.3 mph74%29.81 "HgN/A
7:00 AM79 °FSunny.3 mph89%29.79 "Hg10 mi
6:00 AM79 °FPassing clouds.5 mph84%29.76 "HgN/A
5:00 AM81 °FPassing clouds.8 mph84%29.75 "HgN/A
4:00 AM81 °FClear.14 mph89%29.74 "Hg10 mi
3:00 AM81 °FClear.9 mph84%29.74 "Hg10 mi
2:00 AM81 °FClear.7 mph84%29.76 "Hg10 mi
1:00 AM81 °FClear.6 mph84%29.78 "Hg10 mi
12:00 AM82 °FPassing clouds.9 mph84%29.79 "HgN/A
11:00 PM
Nov 27
82 °FPassing clouds.7 mph84%29.80 "HgN/A
10:00 PM81 °FClear.7 mph89%29.80 "Hg10 mi
9:00 PM81 °FPassing clouds.7 mph89%29.79 "HgN/A
8:00 PM81 °FPassing clouds.8 mph89%29.79 "HgN/A
7:00 PM82 °FPassing clouds.8 mph84%29.77 "HgN/A
6:00 PM84 °FPassing clouds.8 mph79%29.77 "HgN/A
5:00 PM84 °FScattered clouds.10 mph79%29.76 "HgN/A
4:00 PM88 °FScattered clouds.9 mph70%29.76 "HgN/A
3:00 PM88 °FPassing clouds.8 mph70%29.76 "HgN/A
2:00 PM88 °FPassing clouds.7 mph70%29.77 "HgN/A
1:00 PM88 °FBroken clouds.7 mph75%29.79 "HgN/A
12:00 PM86 °FScattered clouds.8 mph79%29.85 "HgN/A
11:00 AM86 °FScattered clouds.5 mph70%29.87 "HgN/A
10:00 AM86 °FScattered clouds.6 mph70%29.90 "HgN/A
Weather by CustomWeather, © 2014

See weather overviewHow to use our weather pages